Time,TemperatureF,DewpointF,PressureIn,WindDirection,WindDirectionDegrees,WindSpeedMPH,WindSpeedGustMPH,Humidity,HourlyPrecipIn,Conditions,Clouds,dailyrainin,SoftwareType,DateUTC
2013-09-09 00:02:00,75.0,71.0,29.75,East,98,1.0,7.0,88,0.00,,,0.00,weatherlink.com 1.10,2013-09-09 05:02:00,
2013-09-09 00:17:00,74.7,71.0,29.76,East,98,0.0,1.0,88,0.00,,,0.00,weatherlink.com 1.10,2013-09-09 05:17:00,
2013-09-09 00:33:00,74.3,71.0,29.75,East,98,0.0,0.0,89,0.00,,,0.00,weatherlink.com 1.10,2013-09-09 05:33:00,
2013-09-09 00:48:00,73.9,71.0,29.75,East,98,0.0,1.0,89,0.00,,,0.00,weatherlink.com 1.10,2013-09-09 05:48:00,
2013-09-09 01:03:00,73.5,71.0,29.75,East,98,0.0,5.0,90,0.00,,,0.00,weatherlink.com 1.10,2013-09-09 06:03:00,
2013-09-09 01:18:00,73.1,70.0,29.75,East,98,0.0,1.0,90,0.00,,,0.00,weatherlink.com 1.10,2013-09-09 06:18:00,
2013-09-09 01:33:00,72.8,70.0,29.75,East,98,0.0,0.0,91,0.00,,,0.00,weatherlink.com 1.10,2013-09-09 06:33:00,
2013-09-09 01:48:00,72.6,70.0,29.75,East,98,0.0,0.0,91,0.00,,,0.00,weatherlink.com 1.10,2013-09-09 06:48:00,
2013-09-09 02:03:00,72.3,70.0,29.75,East,98,0.0,0.0,91,0.00,,,0.00,weatherlink.com 1.10,2013-09-09 07:03:00,
2013-09-09 02:18:00,72.1,70.0,29.74,East,98,0.0,0.0,92,0.00,,,0.00,weatherlink.com 1.10,2013-09-09 07:18:00,
2013-09-09 02:33:00,71.9,70.0,29.74,East,98,0.0,1.0,92,0.00,,,0.00,weatherlink.com 1.10,2013-09-09 07:33:00,
2013-09-09 02:48:00,71.8,69.0,29.74,East,98,0.0,1.0,92,0.00,,,0.00,weatherlink.com 1.10,2013-09-09 07:48:00,
2013-09-09 03:03:00,71.6,70.0,29.74,East,98,0.0,5.0,93,0.00,,,0.00,weatherlink.com 1.10,2013-09-09 08:03:00,
2013-09-09 03:18:00,71.4,69.0,29.74,East,98,0.0,2.0,93,0.00,,,0.00,weatherlink.com 1.10,2013-09-09 08:18:00,
2013-09-09 03:33:00,71.2,69.0,29.74,East,98,0.0,6.0,93,0.00,,,0.00,weatherlink.com 1.10,2013-09-09 08:33:00,
2013-09-09 03:48:00,71.2,69.0,29.74,East,98,0.0,5.0,93,0.00,,,0.00,weatherlink.com 1.10,2013-09-09 08:48:00,
2013-09-09 04:03:00,70.9,69.0,29.74,East,98,0.0,1.0,94,0.00,,,0.00,weatherlink.com 1.10,2013-09-09 09:03:00,
2013-09-09 04:18:00,70.7,69.0,29.74,East,98,0.0,1.0,94,0.00,,,0.00,weatherlink.com 1.10,2013-09-09 09:18:00,
2013-09-09 04:33:00,70.5,69.0,29.74,East,98,0.0,1.0,94,0.00,,,0.00,weatherlink.com 1.10,2013-09-09 09:33:00,
2013-09-09 04:48:00,70.4,69.0,29.74,East,98,0.0,3.0,94,0.00,,,0.00,weatherlink.com 1.10,2013-09-09 09:48:00,
2013-09-09 05:03:00,70.2,69.0,29.74,East,98,0.0,0.0,94,0.00,,,0.00,weatherlink.com 1.10,2013-09-09 10:03:00,
2013-09-09 05:18:00,70.1,68.0,29.74,East,98,2.0,6.0,94,0.00,,,0.00,weatherlink.com 1.10,2013-09-09 10:18:00,
2013-09-09 05:33:00,69.9,68.0,29.74,East,101,0.0,6.0,94,0.00,,,0.00,weatherlink.com 1.10,2013-09-09 10:33:00,
2013-09-09 05:48:00,69.8,68.0,29.74,East,101,0.0,5.0,93,0.00,,,0.00,weatherlink.com 1.10,2013-09-09 10:48:00,
2013-09-09 06:03:00,69.8,68.0,29.75,ESE,103,0.0,5.0,93,0.00,,,0.00,weatherlink.com 1.10,2013-09-09 11:03:00,
2013-09-09 06:18:00,69.7,68.0,29.75,ESE,107,0.0,7.0,93,0.00,,,0.00,weatherlink.com 1.10,2013-09-09 11:18:00,
2013-09-09 06:33:00,69.7,67.0,29.75,ESE,113,0.0,7.0,92,0.00,,,0.00,weatherlink.com 1.10,2013-09-09 11:33:00,
2013-09-09 06:48:00,69.8,67.0,29.76,ESE,115,5.0,7.0,91,0.00,,,0.00,weatherlink.com 1.10,2013-09-09 11:48:00,
2013-09-09 07:03:00,70.0,67.0,29.76,ESE,118,0.0,8.0,91,0.00,,,0.00,weatherlink.com 1.10,2013-09-09 12:03:00,
2013-09-09 07:18:00,70.1,67.0,29.76,SE,128,0.0,8.0,90,0.00,,,0.00,weatherlink.com 1.10,2013-09-09 12:18:00,
2013-09-09 07:33:00,70.5,67.0,29.77,SE,130,4.0,5.0,89,0.00,,,0.00,weatherlink.com 1.10,2013-09-09 12:33:00,
2013-09-09 07:48:00,71.0,67.0,29.77,SE,138,3.0,8.0,88,0.00,,,0.00,weatherlink.com 1.10,2013-09-09 12:48:00,
2013-09-09 08:03:00,71.9,68.0,29.78,SSE,162,0.0,9.0,87,0.00,,,0.00,weatherlink.com 1.10,2013-09-09 13:03:00,
2013-09-09 08:18:00,73.9,69.0,29.78,SSW,198,2.0,9.0,83,0.00,,,0.00,weatherlink.com 1.10,2013-09-09 13:18:00,
2013-09-09 08:33:00,76.7,69.0,29.78,SSW,208,3.0,9.0,77,0.00,,,0.00,weatherlink.com 1.10,2013-09-09 13:33:00,
2013-09-09 08:48:00,78.8,69.0,29.78,SW,217,7.0,11.0,72,0.00,,,0.00,weatherlink.com 1.10,2013-09-09 13:48:00,
2013-09-09 09:03:00,80.2,69.0,29.78,SW,224,0.0,10.0,69,0.00,,,0.00,weatherlink.com 1.10,2013-09-09 14:03:00,
2013-09-09 09:18:00,81.6,70.0,29.78,SW,231,0.0,12.0,67,0.00,,,0.00,weatherlink.com 1.10,2013-09-09 14:18:00,
2013-09-09 09:33:00,83.5,70.0,29.78,SW,229,6.0,13.0,63,0.00,,,0.00,weatherlink.com 1.10,2013-09-09 14:33:00,
2013-09-09 09:49:00,85.4,69.0,29.78,SW,234,0.0,8.0,59,0.00,,,0.00,weatherlink.com 1.10,2013-09-09 14:49:00,
2013-09-09 10:04:00,86.8,69.0,29.78,SW,231,6.0,16.0,55,0.00,,,0.00,weatherlink.com 1.10,2013-09-09 15:04:00,
2013-09-09 10:19:00,87.7,68.0,29.78,SW,219,0.0,12.0,53,0.00,,,0.00,weatherlink.com 1.10,2013-09-09 15:19:00,
2013-09-09 10:34:00,89.2,69.0,29.77,SW,234,2.0,17.0,51,0.00,,,0.00,weatherlink.com 1.10,2013-09-09 15:34:00,
2013-09-09 10:49:00,89.8,69.0,29.77,West,259,1.0,18.0,50,0.00,,,0.00,weatherlink.com 1.10,2013-09-09 15:49:00,
2013-09-09 11:04:00,91.4,68.0,29.77,SW,223,0.0,13.0,47,0.00,,,0.00,weatherlink.com 1.10,2013-09-09 16:04:00,
2013-09-09 11:19:00,92.4,69.0,29.77,WSW,254,10.0,18.0,47,0.00,,,0.00,weatherlink.com 1.10,2013-09-09 16:19:00,
2013-09-09 11:34:00,92.4,68.0,29.77,WSW,242,6.0,16.0,45,0.00,,,0.00,weatherlink.com 1.10,2013-09-09 16:34:00,
2013-09-09 11:49:00,93.8,67.0,29.77,SW,227,3.0,19.0,42,0.00,,,0.00,weatherlink.com 1.10,2013-09-09 16:49:00,
2013-09-09 12:04:00,93.9,67.0,29.76,SW,232,14.0,19.0,42,0.00,,,0.00,weatherlink.com 1.10,2013-09-09 17:04:00,
2013-09-09 12:19:00,95.3,68.0,29.76,SW,219,4.0,19.0,41,0.00,,,0.00,weatherlink.com 1.10,2013-09-09 17:19:00,
2013-09-09 12:34:00,96.1,67.0,29.76,WSW,248,0.0,17.0,39,0.00,,,0.00,weatherlink.com 1.10,2013-09-09 17:34:00,
2013-09-09 12:49:00,97.2,68.0,29.76,SW,215,0.0,16.0,39,0.00,,,0.00,weatherlink.com 1.10,2013-09-09 17:49:00,
2013-09-09 13:04:00,97.1,69.0,29.75,South,184,1.0,14.0,40,0.00,,,0.00,weatherlink.com 1.10,2013-09-09 18:04:00,
2013-09-09 13:19:00,97.4,68.0,29.75,SSW,196,3.0,17.0,38,0.00,,,0.00,weatherlink.com 1.10,2013-09-09 18:19:00,
2013-09-09 13:34:00,98.1,68.0,29.75,SW,235,13.0,17.0,37,0.00,,,0.00,weatherlink.com 1.10,2013-09-09 18:34:00,
2013-09-09 13:49:00,98.2,69.0,29.75,SW,214,3.0,18.0,38,0.00,,,0.00,weatherlink.com 1.10,2013-09-09 18:49:00,
2013-09-09 14:04:00,98.4,68.0,29.75,SW,214,1.0,20.0,37,0.00,,,0.00,weatherlink.com 1.10,2013-09-09 19:04:00,
2013-09-09 14:19:00,98.8,68.0,29.74,SW,232,6.0,19.0,36,0.00,,,0.00,weatherlink.com 1.10,2013-09-09 19:19:00,
2013-09-09 14:34:00,98.7,67.0,29.74,WSW,243,1.0,17.0,36,0.00,,,0.00,weatherlink.com 1.10,2013-09-09 19:34:00,
2013-09-09 14:49:00,98.6,67.0,29.74,SW,217,3.0,25.0,35,0.00,,,0.00,weatherlink.com 1.10,2013-09-09 19:49:00,
2013-09-09 15:04:00,98.4,67.0,29.73,SW,229,1.0,19.0,36,0.00,,,0.00,weatherlink.com 1.10,2013-09-09 20:04:00,
2013-09-09 15:19:00,98.3,68.0,29.73,WSW,238,13.0,22.0,37,0.00,,,0.00,weatherlink.com 1.10,2013-09-09 20:19:00,
2013-09-09 15:34:00,98.4,67.0,29.73,SSW,209,1.0,23.0,36,0.00,,,0.00,weatherlink.com 1.10,2013-09-09 20:34:00,
2013-09-09 15:49:00,97.9,67.0,29.73,WSW,246,9.0,25.0,36,0.00,,,0.00,weatherlink.com 1.10,2013-09-09 20:49:00,
2013-09-09 16:04:00,97.6,66.0,29.73,WSW,244,18.0,25.0,36,0.00,,,0.00,weatherlink.com 1.10,2013-09-09 21:04:00,
2013-09-09 16:19:00,97.6,66.0,29.73,South,170,10.0,22.0,36,0.00,,,0.00,weatherlink.com 1.10,2013-09-09 21:19:00,
2013-09-09 16:34:00,97.4,66.0,29.73,WSW,257,23.0,23.0,36,0.00,,,0.00,weatherlink.com 1.10,2013-09-09 21:34:00,
2013-09-09 16:49:00,96.9,67.0,29.73,South,191,18.0,26.0,37,0.00,,,0.00,weatherlink.com 1.10,2013-09-09 21:49:00,
2013-09-09 17:04:00,96.3,66.0,29.73,South,176,4.0,21.0,37,0.00,,,0.00,weatherlink.com 1.10,2013-09-09 22:04:00,
2013-09-09 17:19:00,95.8,67.0,29.73,SW,219,20.0,21.0,39,0.00,,,0.00,weatherlink.com 1.10,2013-09-09 22:19:00,
2013-09-09 17:34:00,95.3,67.0,29.73,SSW,208,1.0,22.0,39,0.00,,,0.00,weatherlink.com 1.10,2013-09-09 22:34:00,
2013-09-09 17:49:00,94.7,67.0,29.73,SW,231,15.0,18.0,40,0.00,,,0.00,weatherlink.com 1.10,2013-09-09 22:49:00,
2013-09-09 18:04:00,94.1,66.0,29.74,SW,222,0.0,17.0,40,0.00,,,0.00,weatherlink.com 1.10,2013-09-09 23:04:00,
2013-09-09 18:19:00,93.6,67.0,29.74,SSE,166,2.0,16.0,42,0.00,,,0.00,weatherlink.com 1.10,2013-09-09 23:19:00,
2013-09-09 18:34:00,92.9,67.0,29.74,SSW,213,0.0,12.0,42,0.00,,,0.00,weatherlink.com 1.10,2013-09-09 23:34:00,
2013-09-09 18:49:00,92.2,67.0,29.74,SW,216,0.0,7.0,44,0.00,,,0.00,weatherlink.com 1.10,2013-09-09 23:49:00,
2013-09-09 19:04:00,91.3,67.0,29.75,SW,219,0.0,6.0,45,0.00,,,0.00,weatherlink.com 1.10,2013-09-10 00:04:00,
2013-09-09 19:19:00,90.1,67.0,29.75,SW,220,0.0,4.0,46,0.00,,,0.00,weatherlink.com 1.10,2013-09-10 00:19:00,
2013-09-09 19:34:00,89.0,67.0,29.75,SW,220,0.0,1.0,48,0.00,,,0.00,weatherlink.com 1.10,2013-09-10 00:34:00,
2013-09-09 19:49:00,87.5,67.0,29.76,SW,217,0.0,1.0,50,0.00,,,0.00,weatherlink.com 1.10,2013-09-10 00:49:00,
2013-09-09 20:04:00,86.0,66.0,29.75,SW,217,0.0,4.0,52,0.00,,,0.00,weatherlink.com 1.10,2013-09-10 01:04:00,
2013-09-09 20:19:00,84.7,66.0,29.76,SW,215,0.0,3.0,54,0.00,,,0.00,weatherlink.com 1.10,2013-09-10 01:19:00,
2013-09-09 20:35:00,83.8,66.0,29.77,SSW,209,0.0,5.0,55,0.00,,,0.00,weatherlink.com 1.10,2013-09-10 01:35:00,
2013-09-09 20:50:00,82.9,66.0,29.77,SSW,205,0.0,5.0,57,0.00,,,0.00,weatherlink.com 1.10,2013-09-10 01:50:00,
2013-09-09 21:05:00,82.3,66.0,29.77,SSW,202,0.0,5.0,58,0.00,,,0.00,weatherlink.com 1.10,2013-09-10 02:05:00,
2013-09-09 21:20:00,81.6,66.0,29.78,SSW,195,0.0,3.0,59,0.00,,,0.00,weatherlink.com 1.10,2013-09-10 02:20:00,
2013-09-09 21:35:00,80.9,66.0,29.78,South,190,0.0,5.0,60,0.00,,,0.00,weatherlink.com 1.10,2013-09-10 02:35:00,
2013-09-09 21:50:00,80.3,66.0,29.78,South,186,0.0,6.0,61,0.00,,,0.00,weatherlink.com 1.10,2013-09-10 02:50:00,
2013-09-09 22:05:00,79.9,65.0,29.78,South,186,0.0,7.0,61,0.00,,,0.00,weatherlink.com 1.10,2013-09-10 03:05:00,
2013-09-09 22:20:00,79.7,65.0,29.79,South,186,0.0,8.0,62,0.00,,,0.00,weatherlink.com 1.10,2013-09-10 03:20:00,
2013-09-09 22:35:00,79.5,65.0,29.80,SSW,196,0.0,10.0,62,0.00,,,0.00,weatherlink.com 1.10,2013-09-10 03:35:00,
2013-09-09 22:50:00,79.3,65.0,29.80,SSW,196,7.0,8.0,62,0.00,,,0.00,weatherlink.com 1.10,2013-09-10 03:50:00,
2013-09-09 23:05:00,79.1,64.0,29.80,SSW,197,6.0,9.0,61,0.00,,,0.00,weatherlink.com 1.10,2013-09-10 04:05:00,
2013-09-09 23:20:00,79.1,64.0,29.80,SSW,194,3.0,9.0,61,0.00,,,0.00,weatherlink.com 1.10,2013-09-10 04:20:00,
2013-09-09 23:35:00,79.2,64.0,29.80,SSW,194,0.0,7.0,60,0.00,,,0.00,weatherlink.com 1.10,2013-09-10 04:35:00,
2013-09-09 23:50:00,78.9,64.0,29.81,South,181,0.0,0.0,60,0.00,,,0.00,weatherlink.com 1.10,2013-09-10 04:50:00,